| time (UTC) | temp F | wind direction | speed MPH | gust MPH | rain 1hr in | rain 24hr in | rain mn in | humidity % | barometer mb |
| 20260905182642 | 82 | 63 | 2.0 | 2.0 | 0.00 | 0.75 | 0.75 | 73 | 978.8 |
| 20260905182137 | 81 | 62 | 1.0 | 2.0 | 0.00 | 0.75 | 0.75 | 73 | 978.9 |
| 20260905181632 | 80 | 62 | 0.0 | 1.0 | 0.00 | 0.75 | 0.75 | 74 | 979.0 |
| 20260905181130 | 80 | 65 | 3.0 | 4.0 | 0.00 | 0.75 | 0.75 | 77 | 978.9 |
| 20260905180625 | 79 | 4 | 0.0 | 1.0 | 0.00 | 0.75 | 0.75 | 80 | 978.9 |
| 20260905180121 | 80 | 357 | 0.0 | 2.0 | 0.00 | 0.75 | 0.75 | 76 | 979.2 |
| 20260905175620 | 80 | 358 | 1.0 | 2.0 | 0.00 | 0.75 | 0.75 | 75 | 979.2 |
| 20260905175115 | 81 | 356 | 1.0 | 3.0 | 0.00 | 0.75 | 0.75 | 75 | 979.5 |
| 20260905174611 | 81 | 347 | 1.0 | 1.0 | 0.00 | 0.75 | 0.75 | 78 | 979.7 |
| 20260905174106 | 80 | 347 | 1.0 | 2.0 | 0.00 | 0.75 | 0.75 | 78 | 979.6 |
| 20260905173602 | 79 | 347 | 0.0 | 3.0 | 0.00 | 0.75 | 0.75 | 78 | 979.7 |
| 20260905173058 | 81 | 24 | 3.0 | 3.0 | 0.00 | 0.75 | 0.75 | 73 | 979.6 |
| 20260905172556 | 81 | 29 | 0.0 | 4.0 | 0.00 | 0.75 | 0.75 | 73 | 979.8 |
| 20260905172052 | 79 | 231 | 2.0 | 3.0 | 0.00 | 0.75 | 0.75 | 78 | 979.8 |
| 20260905171549 | 81 | 219 | 2.0 | 2.0 | 0.00 | 0.75 | 0.75 | 78 | 979.8 |
| 20260905171044 | 79 | 218 | 0.0 | 2.0 | 0.00 | 0.75 | 0.75 | 84 | 979.8 |
| 20260905170541 | 79 | 218 | 1.0 | 3.0 | 0.00 | 0.75 | 0.75 | 83 | 979.7 |
| 20260905170036 | 80 | 82 | 3.0 | 4.0 | 0.00 | 0.75 | 0.75 | 84 | 980.0 |
| 20260905165531 | 80 | 297 | 2.0 | 3.0 | 0.00 | 0.75 | 0.75 | 83 | 980.0 |
| 20260905165026 | 78 | 294 | 1.0 | 6.0 | 0.00 | 0.75 | 0.75 | 82 | 980.1 |
| 20260905164525 | 79 | 55 | 1.0 | 1.0 | 0.00 | 0.75 | 0.75 | 81 | 980.0 |
| 20260905164020 | 79 | 56 | 0.0 | 2.0 | 0.00 | 0.75 | 0.75 | 81 | 980.2 |
| 20260905163516 | 78 | 62 | 2.0 | 2.0 | 0.00 | 0.75 | 0.75 | 83 | 980.0 |
| 20260905163013 | 78 | 67 | 1.0 | 3.0 | 0.00 | 0.75 | 0.75 | 84 | 980.3 |
| 20260905162508 | 78 | 67 | 1.0 | 2.0 | 0.00 | 0.75 | 0.75 | 85 | 980.2 |
| 20260905162002 | 77 | 67 | 1.0 | 1.0 | 0.00 | 0.75 | 0.75 | 84 | 980.5 |
| 20260905161502 | 78 | 67 | 2.0 | 4.0 | 0.00 | 0.75 | 0.75 | 82 | 980.5 |
| 20260905161000 | 77 | 67 | 1.0 | 2.0 | 0.00 | 0.75 | 0.75 | 85 | 980.7 |
| 20260905160453 | 78 | 67 | 3.0 | 4.0 | 0.00 | 0.75 | 0.75 | 86 | 980.4 |
| 20260905155953 | 78 | 69 | 0.0 | 1.0 | 0.00 | 0.75 | 0.75 | 84 | 980.5 |
| 20260905155448 | 78 | 70 | 2.0 | 3.0 | 0.00 | 0.75 | 0.75 | 86 | 980.5 |
| 20260905154947 | 77 | 70 | 5.0 | 6.0 | 0.00 | 0.75 | 0.75 | 88 | 980.3 |
| 20260905154442 | 75 | 292 | 0.0 | 2.0 | 0.00 | 0.75 | 0.75 | 92 | 980.6 |
| 20260905153938 | 77 | 292 | 2.0 | 3.0 | 0.00 | 0.75 | 0.75 | 91 | 980.5 |
| 20260905153434 | 75 | 292 | 1.0 | 2.0 | 0.00 | 0.75 | 0.75 | 96 | 980.6 |
| 20260905152933 | 73 | 352 | 1.0 | 4.0 | 0.00 | 0.75 | 0.75 | 96 | 980.5 |
| 20260905152433 | 74 | 257 | 2.0 | 4.0 | 0.00 | 0.75 | 0.75 | 95 | 980.6 |
| 20260905151928 | 74 | 194 | 1.0 | 2.0 | 0.00 | 0.75 | 0.75 | 95 | 980.2 |
| 20260905151424 | 72 | 193 | 1.0 | 1.0 | 0.00 | 0.75 | 0.75 | 98 | 979.8 |
| 20260905150924 | 73 | 192 | 1.0 | 2.0 | 0.00 | 0.75 | 0.75 | 99 | 979.2 |
| 20260905150424 | 71 | 227 | 0.0 | 1.0 | 0.00 | 0.75 | 0.75 | 99 | 979.6 |
| 20260905145920 | 71 | 156 | 1.0 | 2.0 | 0.00 | 0.75 | 0.75 | 99 | 979.6 |
| 20260905145415 | 71 | 159 | 1.0 | 2.0 | 0.00 | 0.75 | 0.75 | 99 | 978.9 |
| 20260905144915 | 71 | 158 | 0.0 | 1.0 | 0.00 | 0.75 | 0.75 | 99 | 978.8 |
| 20260905144411 | 70 | 159 | 1.0 | 3.0 | 0.00 | 0.75 | 0.75 | 99 | 978.8 |
| 20260905143909 | 70 | 144 | 1.0 | 3.0 | 0.00 | 0.75 | 0.75 | 99 | 978.7 |
| 20260905143404 | 70 | 119 | 3.0 | 4.0 | 0.00 | 0.75 | 0.75 | 99 | 979.0 |
| 20260905142903 | 70 | 153 | 1.0 | 3.0 | 0.00 | 0.75 | 0.75 | 99 | 979.1 |
| 20260905142402 | 70 | 283 | 0.0 | 1.0 | 0.00 | 0.75 | 0.75 | 99 | 979.5 |
| 20260905141858 | 70 | 331 | 0.0 | 2.0 | 0.00 | 0.75 | 0.75 | 99 | 979.5 |
| 20260905141353 | 69 | 331 | 0.0 | 2.0 | 0.00 | 0.75 | 0.75 | 99 | 980.1 |
| 20260905140849 | 69 | 331 | 0.0 | 3.0 | 0.07 | 0.75 | 0.75 | 99 | 980.1 |
| 20260905140349 | 69 | 330 | 2.0 | 3.0 | 0.00 | 0.74 | 0.74 | 99 | 980.2 |
| 20260905135847 | 69 | 330 | 0.0 | 1.0 | 0.00 | 0.74 | 0.74 | 99 | 980.1 |
| 20260905135344 | 69 | 330 | 0.0 | 0.0 | 0.07 | 0.74 | 0.74 | 99 | 980.4 |
| 20260905134839 | 69 | 330 | 1.0 | 1.0 | 0.07 | 0.74 | 0.74 | 99 | 980.3 |
| 20260905134337 | 69 | 330 | 0.0 | 0.0 | 0.00 | 0.73 | 0.73 | 99 | 980.1 |
| 20260905133832 | 69 | 330 | 0.0 | 0.0 | 0.05 | 0.73 | 0.73 | 99 | 980.4 |
| 20260905133328 | 69 | 330 | 0.0 | 1.0 | 0.12 | 0.73 | 0.73 | 99 | 980.5 |
| 20260905132826 | 69 | 330 | 0.0 | 0.0 | 0.12 | 0.72 | 0.72 | 99 | 980.5 |
| 20260905132323 | 69 | 330 | 0.0 | 2.0 | 0.12 | 0.71 | 0.71 | 99 | 980.5 |
| 20260905131816 | 69 | 330 | 1.0 | 2.0 | 0.12 | 0.70 | 0.70 | 99 | 980.4 |
| 20260905131312 | 69 | 330 | 0.0 | 0.0 | 0.12 | 0.69 | 0.69 | 99 | 980.5 |
| 20260905130807 | 69 | 330 | 0.0 | 0.0 | 0.12 | 0.68 | 0.68 | 99 | 980.8 |
| 20260905130305 | 69 | 330 | 0.0 | 0.0 | 0.05 | 0.67 | 0.67 | 99 | 980.8 |
| 20260905125801 | 69 | 330 | 0.0 | 1.0 | 0.12 | 0.66 | 0.66 | 99 | 980.9 |
| 20260905125257 | 69 | 330 | 0.0 | 2.0 | 0.26 | 0.66 | 0.66 | 99 | 981.0 |
| 20260905124753 | 69 | 331 | 0.0 | 1.0 | 0.19 | 0.64 | 0.64 | 99 | 981.0 |
| 20260905124249 | 69 | 331 | 0.0 | 1.0 | 0.17 | 0.62 | 0.62 | 99 | 980.9 |
| 20260905123744 | 69 | 331 | 1.0 | 2.0 | 0.31 | 0.61 | 0.61 | 99 | 980.9 |
| 20260905123241 | 69 | 331 | 0.0 | 1.0 | 0.35 | 0.59 | 0.59 | 99 | 981.0 |
| 20260905122740 | 69 | 330 | 0.0 | 2.0 | 0.24 | 0.55 | 0.55 | 99 | 981.1 |
| 20260905122239 | 69 | 330 | 0.0 | 2.0 | 0.66 | 0.53 | 0.53 | 99 | 981.3 |
| 20260905121735 | 69 | 233 | 2.0 | 4.0 | 2.10 | 0.51 | 0.51 | 99 | 980.9 |
| 20260905121232 | 69 | 305 | 0.0 | 8.0 | 2.34 | 0.41 | 0.41 | 99 | 980.8 |
| 20260905120730 | 68 | 25 | 0.0 | 2.0 | 0.90 | 0.16 | 0.16 | 99 | 980.5 |
| 20260905120230 | 68 | 16 | 0.0 | 0.0 | 0.05 | 0.02 | 0.02 | 99 | 979.5 |
| 20260905115725 | 67 | 16 | 0.0 | 0.0 | 0.00 | 0.01 | 0.01 | 99 | 979.1 |
| 20260905115219 | 67 | 16 | 0.0 | 0.0 | 0.00 | 0.01 | 0.01 | 99 | 978.6 |
| 20260905114715 | 67 | 16 | 0.0 | 0.0 | 0.00 | 0.01 | 0.01 | 99 | 978.8 |
| 20260905114213 | 67 | 16 | 0.0 | 0.0 | 0.00 | 0.01 | 0.01 | 99 | 978.6 |
| 20260905113712 | 67 | 16 | 0.0 | 0.0 | 0.00 | 0.01 | 0.01 | 99 | 978.6 |
| 20260905113208 | 67 | 16 | 0.0 | 0.0 | 0.07 | 0.01 | 0.01 | 99 | 978.3 |
| 20260905112708 | 67 | 16 | 0.0 | 0.0 | 0.07 | 0.01 | 0.01 | 99 | 978.6 |
| 20260905112203 | 67 | 16 | 0.0 | 0.0 | 0.00 | 0.00 | 0.00 | 99 | 978.8 |
| 20260905111703 | 67 | 16 | 0.0 | 0.0 | 0.00 | 0.00 | 0.00 | 99 | 978.9 |
| 20260905111203 | 67 | 16 | 0.0 | 0.0 | 0.00 | 0.00 | 0.00 | 99 | 978.8 |
| 20260905110702 | 67 | 16 | 0.0 | 0.0 | 0.00 | 0.00 | 0.00 | 99 | 979.0 |
| 20260905110157 | 67 | 16 | 0.0 | 0.0 | 0.00 | 0.00 | 0.00 | 99 | 978.8 |
| 20260905105653 | 67 | 16 | 0.0 | 0.0 | 0.00 | 0.00 | 0.00 | 99 | 978.6 |
| 20260905105151 | 67 | 16 | 0.0 | 0.0 | 0.00 | 0.00 | 0.00 | 99 | 978.5 |
| 20260905104646 | 67 | 16 | 0.0 | 0.0 | 0.00 | 0.00 | 0.00 | 99 | 978.6 |
| 20260905104142 | 67 | 16 | 0.0 | 0.0 | 0.00 | 0.00 | 0.00 | 99 | 978.5 |
| 20260905103637 | 67 | 16 | 0.0 | 0.0 | 0.00 | 0.00 | 0.00 | 99 | 978.5 |
| 20260905103133 | 67 | 16 | 0.0 | 0.0 | 0.00 | 0.00 | 0.00 | 99 | 978.5 |
| 20260905102628 | 67 | 16 | 0.0 | 0.0 | 0.00 | 0.00 | 0.00 | 99 | 978.7 |
| 20260905102125 | 67 | 16 | 0.0 | 0.0 | 0.00 | 0.00 | 0.00 | 99 | 978.6 |
| 20260905101623 | 67 | 16 | 0.0 | 0.0 | 0.00 | 0.00 | 0.00 | 99 | 978.7 |
| 20260905101121 | 67 | 16 | 0.0 | 0.0 | 0.00 | 0.00 | 0.00 | 99 | 978.7 |
| 20260905100618 | 67 | 16 | 0.0 | 0.0 | 0.00 | 0.00 | 0.00 | 99 | 978.8 |
| 20260905100113 | 67 | 16 | 0.0 | 0.0 | 0.00 | 0.00 | 0.00 | 99 | 978.8 |
| 20260905095606 | 67 | 16 | 0.0 | 0.0 | 0.00 | 0.00 | 0.00 | 99 | 978.7 |
| 20260905095102 | 67 | 16 | 0.0 | 0.0 | 0.00 | 0.00 | 0.00 | 99 | 978.8 |
| 20260905094557 | 67 | 16 | 0.0 | 0.0 | 0.00 | 0.00 | 0.00 | 99 | 978.9 |
| 20260905094056 | 67 | 16 | 0.0 | 0.0 | 0.00 | 0.00 | 0.00 | 99 | 978.6 |
| 20260905093556 | 67 | 16 | 0.0 | 0.0 | 0.00 | 0.00 | 0.00 | 99 | 978.7 |
| 20260905093053 | 67 | 16 | 0.0 | 0.0 | 0.00 | 0.00 | 0.00 | 99 | 978.7 |
| 20260905092552 | 67 | 16 | 0.0 | 0.0 | 0.00 | 0.00 | 0.00 | 99 | 978.9 |
| 20260905092049 | 67 | 16 | 0.0 | 0.0 | 0.00 | 0.00 | 0.00 | 99 | 978.9 |
| 20260905091547 | 67 | 16 | 0.0 | 0.0 | 0.00 | 0.00 | 0.00 | 99 | 978.7 |
| 20260905091042 | 67 | 16 | 0.0 | 0.0 | 0.00 | 0.00 | 0.00 | 99 | 978.4 |
| 20260905090542 | 67 | 16 | 0.0 | 0.0 | 0.00 | 0.00 | 0.00 | 99 | 978.8 |
| 20260905090038 | 67 | 16 | 0.0 | 0.0 | 0.00 | 0.00 | 0.00 | 99 | 978.5 |
| 20260905085535 | 67 | 16 | 0.0 | 0.0 | 0.00 | 0.00 | 0.00 | 99 | 978.6 |
| 20260905085032 | 67 | 16 | 0.0 | 0.0 | 0.00 | 0.00 | 0.00 | 99 | 978.6 |
| 20260905084531 | 67 | 16 | 0.0 | 0.0 | 0.00 | 0.00 | 0.00 | 99 | 978.6 |
| 20260905084027 | 67 | 16 | 0.0 | 0.0 | 0.00 | 0.00 | 0.00 | 99 | 978.5 |
| 20260905083521 | 67 | 16 | 0.0 | 0.0 | 0.00 | 0.00 | 0.00 | 99 | 978.6 |
| 20260905083018 | 67 | 16 | 0.0 | 0.0 | 0.00 | 0.00 | 0.00 | 99 | 978.7 |
| 20260905082513 | 67 | 16 | 0.0 | 0.0 | 0.00 | 0.00 | 0.00 | 99 | 978.7 |
| 20260905082009 | 68 | 16 | 0.0 | 0.0 | 0.00 | 0.00 | 0.00 | 99 | 978.8 |
| 20260905081503 | 68 | 16 | 0.0 | 0.0 | 0.00 | 0.00 | 0.00 | 99 | 978.7 |
| 20260905081003 | 68 | 16 | 0.0 | 0.0 | 0.00 | 0.00 | 0.00 | 99 | 979.0 |
| 20260905080458 | 68 | 16 | 0.0 | 0.0 | 0.00 | 0.00 | 0.00 | 99 | 978.8 |
| 20260905075956 | 68 | 16 | 0.0 | 0.0 | 0.00 | 0.00 | 0.00 | 99 | 978.9 |
| 20260905075451 | 67 | 16 | 0.0 | 0.0 | 0.00 | 0.00 | 0.00 | 99 | 979.0 |
| 20260905074949 | 67 | 16 | 0.0 | 0.0 | 0.00 | 0.00 | 0.00 | 99 | 978.8 |
| 20260905074446 | 67 | 16 | 0.0 | 0.0 | 0.00 | 0.00 | 0.00 | 99 | 978.9 |
| 20260905073941 | 67 | 16 | 0.0 | 0.0 | 0.00 | 0.00 | 0.00 | 99 | 979.0 |
| 20260905073436 | 67 | 16 | 0.0 | 0.0 | 0.00 | 0.00 | 0.00 | 99 | 979.0 |
| 20260905072931 | 67 | 16 | 0.0 | 0.0 | 0.00 | 0.00 | 0.00 | 99 | 979.0 |
| 20260905072426 | 67 | 16 | 0.0 | 0.0 | 0.00 | 0.00 | 0.00 | 99 | 979.0 |
| 20260905071922 | 68 | 16 | 0.0 | 0.0 | 0.00 | 0.00 | 0.00 | 99 | 979.2 |
| 20260905071419 | 68 | 16 | 0.0 | 0.0 | 0.00 | 0.00 | 0.00 | 99 | 979.3 |
| 20260905070918 | 68 | 16 | 0.0 | 0.0 | 0.00 | 0.00 | 0.00 | 99 | 979.2 |
| 20260905070415 | 68 | 16 | 0.0 | 0.0 | 0.00 | 0.00 | 0.00 | 99 | 979.3 |
| 20260905065914 | 68 | 16 | 0.0 | 0.0 | 0.00 | 0.00 | 0.00 | 99 | 979.5 |
| 20260905065412 | 68 | 16 | 0.0 | 0.0 | 0.00 | 0.00 | 0.00 | 99 | 979.6 |
| 20260905064909 | 68 | 16 | 0.0 | 0.0 | 0.00 | 0.00 | 0.00 | 99 | 979.7 |
| 20260905064409 | 68 | 16 | 0.0 | 0.0 | 0.00 | 0.00 | 0.00 | 99 | 979.8 |
| 20260905063908 | 68 | 16 | 0.0 | 0.0 | 0.00 | 0.00 | 0.00 | 99 | 979.9 |
| 20260905063403 | 68 | 16 | 0.0 | 0.0 | 0.00 | 0.00 | 0.00 | 99 | 980.0 |
| 20260905062901 | 68 | 16 | 0.0 | 0.0 | 0.00 | 0.00 | 0.00 | 99 | 980.0 |
| 20260905062400 | 68 | 16 | 0.0 | 0.0 | 0.00 | 0.00 | 0.00 | 99 | 980.2 |
| 20260905061855 | 68 | 16 | 0.0 | 0.0 | 0.00 | 0.00 | 0.00 | 99 | 980.1 |
| 20260905061349 | 68 | 16 | 0.0 | 0.0 | 0.00 | 0.00 | 0.00 | 99 | 980.2 |
| 20260905060849 | 68 | 16 | 0.0 | 0.0 | 0.00 | 0.00 | 0.00 | 99 | 980.3 |
| 20260905060346 | 68 | 16 | 0.0 | 0.0 | 0.00 | 0.00 | 0.00 | 99 | 980.4 |
| 20260905055845 | 68 | 16 | 0.0 | 0.0 | 0.00 | 0.00 | 0.00 | 99 | 980.4 |
| 20260905055340 | 68 | 16 | 0.0 | 0.0 | 0.00 | 0.00 | 0.00 | 99 | 980.4 |
| 20260905054839 | 68 | 16 | 0.0 | 0.0 | 0.00 | 0.00 | 0.00 | 99 | 980.6 |
| 20260905054336 | 68 | 16 | 0.0 | 0.0 | 0.00 | 0.00 | 0.00 | 99 | 980.8 |
| 20260905053835 | 68 | 16 | 0.0 | 0.0 | 0.00 | 0.00 | 0.00 | 99 | 980.7 |
| 20260905053336 | 68 | 16 | 0.0 | 0.0 | 0.00 | 0.00 | 0.00 | 99 | 981.0 |
| 20260905052831 | 68 | 16 | 0.0 | 0.0 | 0.00 | 0.00 | 0.00 | 99 | 980.9 |
| 20260905052330 | 68 | 16 | 0.0 | 0.0 | 0.00 | 0.00 | 0.00 | 99 | 980.8 |
| 20260905051830 | 68 | 16 | 0.0 | 0.0 | 0.00 | 0.00 | 0.00 | 99 | 981.0 |
| 20260905051326 | 67 | 16 | 0.0 | 0.0 | 0.00 | 0.00 | 0.00 | 99 | 981.0 |
| 20260905050823 | 67 | 16 | 0.0 | 0.0 | 0.00 | 0.00 | 0.00 | 99 | 980.8 |
| 20260905050319 | 67 | 16 | 0.0 | 0.0 | 0.00 | 0.00 | 0.00 | 99 | 981.0 |
| 20260905045814 | 67 | 16 | 0.0 | 0.0 | 0.00 | 0.00 | 0.00 | 99 | 981.1 |
| 20260905045309 | 67 | 16 | 0.0 | 0.0 | 0.00 | 0.00 | 0.00 | 99 | 980.8 |
| 20260905044804 | 67 | 16 | 0.0 | 0.0 | 0.00 | 0.00 | 0.00 | 99 | 981.2 |
| 20260905044300 | 67 | 16 | 0.0 | 0.0 | 0.00 | 0.00 | 0.00 | 99 | 981.1 |
| 20260905043758 | 68 | 16 | 0.0 | 0.0 | 0.00 | 0.00 | 0.00 | 99 | 981.2 |
| 20260905043253 | 68 | 16 | 0.0 | 0.0 | 0.00 | 0.00 | 0.00 | 99 | 981.2 |
| 20260905042753 | 68 | 16 | 0.0 | 0.0 | 0.00 | 0.00 | 0.00 | 99 | 981.3 |
| 20260905042253 | 68 | 16 | 0.0 | 0.0 | 0.00 | 0.00 | 0.00 | 99 | 981.4 |
| 20260905041748 | 68 | 16 | 0.0 | 0.0 | 0.00 | 0.00 | 0.00 | 99 | 981.3 |
| 20260905041243 | 68 | 16 | 0.0 | 0.0 | 0.00 | 0.00 | 0.00 | 99 | 981.5 |
| 20260905040738 | 68 | 16 | 0.0 | 0.0 | 0.00 | 0.00 | 0.00 | 99 | 981.5 |
| 20260905040237 | 68 | 16 | 0.0 | 0.0 | 0.00 | 0.21 | 0.21 | 99 | 981.3 |
| 20260905035732 | 68 | 16 | 0.0 | 0.0 | 0.00 | 0.21 | 0.21 | 99 | 981.4 |
| 20260905035228 | 68 | 16 | 0.0 | 0.0 | 0.00 | 0.21 | 0.21 | 99 | 981.6 |
| 20260905034725 | 68 | 16 | 0.0 | 0.0 | 0.00 | 0.21 | 0.21 | 99 | 981.5 |
| 20260905034224 | 68 | 16 | 0.0 | 0.0 | 0.00 | 0.21 | 0.21 | 99 | 981.5 |
| 20260905033723 | 68 | 16 | 0.0 | 0.0 | 0.00 | 0.21 | 0.21 | 99 | 981.6 |
| 20260905033219 | 68 | 16 | 0.0 | 0.0 | 0.00 | 0.21 | 0.21 | 99 | 981.3 |
| 20260905032718 | 68 | 16 | 0.0 | 0.0 | 0.00 | 0.21 | 0.21 | 99 | 981.2 |
| 20260905032213 | 68 | 16 | 0.0 | 0.0 | 0.00 | 0.21 | 0.21 | 99 | 980.9 |
| 20260905031709 | 68 | 16 | 0.0 | 0.0 | 0.00 | 0.21 | 0.21 | 99 | 981.1 |
| 20260905031204 | 68 | 16 | 0.0 | 0.0 | 0.00 | 0.21 | 0.21 | 99 | 981.2 |
| 20260905030659 | 68 | 16 | 0.0 | 0.0 | 0.00 | 0.21 | 0.21 | 99 | 981.0 |
| 20260905030154 | 68 | 16 | 0.0 | 0.0 | 0.00 | 0.21 | 0.21 | 99 | 980.8 |
| 20260905025649 | 68 | 16 | 0.0 | 0.0 | 0.00 | 0.21 | 0.21 | 99 | 980.8 |
| 20260905025145 | 68 | 16 | 0.0 | 0.0 | 0.00 | 0.21 | 0.21 | 99 | 980.8 |
| 20260905024641 | 67 | 16 | 0.0 | 0.0 | 0.00 | 0.21 | 0.21 | 99 | 980.7 |
| 20260905024136 | 67 | 16 | 0.0 | 0.0 | 0.00 | 0.21 | 0.21 | 99 | 980.8 |
| 20260905023631 | 67 | 16 | 0.0 | 0.0 | 0.00 | 0.21 | 0.21 | 99 | 980.8 |
| 20260905023131 | 68 | 16 | 0.0 | 0.0 | 0.00 | 0.21 | 0.21 | 99 | 980.9 |
| 20260905022630 | 68 | 16 | 0.0 | 0.0 | 0.00 | 0.21 | 0.21 | 99 | 980.8 |
| 20260905022126 | 68 | 16 | 0.0 | 0.0 | 0.00 | 0.21 | 0.21 | 99 | 980.7 |
| 20260905021625 | 68 | 16 | 0.0 | 0.0 | 0.00 | 0.21 | 0.21 | 99 | 980.9 |
| 20260905021121 | 68 | 16 | 0.0 | 0.0 | 0.00 | 0.21 | 0.21 | 99 | 980.9 |
| 20260905020621 | 68 | 16 | 0.0 | 0.0 | 0.00 | 0.21 | 0.21 | 99 | 980.7 |
| 20260905020116 | 68 | 16 | 0.0 | 0.0 | 0.00 | 0.21 | 0.21 | 99 | 980.6 |
| 20260905015615 | 68 | 16 | 0.0 | 0.0 | 0.00 | 0.21 | 0.21 | 99 | 980.6 |
| 20260905015109 | 68 | 16 | 0.0 | 0.0 | 0.00 | 0.21 | 0.21 | 99 | 980.5 |
| 20260905014603 | 68 | 16 | 0.0 | 0.0 | 0.00 | 0.21 | 0.21 | 99 | 980.5 |
| 20260905014059 | 68 | 16 | 0.0 | 0.0 | 0.00 | 0.21 | 0.21 | 99 | 980.5 |
| 20260905013555 | 68 | 16 | 0.0 | 0.0 | 0.00 | 0.21 | 0.21 | 99 | 980.3 |
| 20260905013051 | 68 | 16 | 0.0 | 0.0 | 0.00 | 0.21 | 0.21 | 99 | 980.4 |
| 20260905012550 | 69 | 16 | 0.0 | 0.0 | 0.00 | 0.21 | 0.21 | 99 | 980.4 |
| 20260905012047 | 69 | 16 | 0.0 | 0.0 | 0.00 | 0.21 | 0.21 | 99 | 980.4 |
| 20260905011543 | 68 | 16 | 0.0 | 0.0 | 0.00 | 0.21 | 0.21 | 99 | 980.4 |
| 20260905011038 | 68 | 16 | 0.0 | 0.0 | 0.00 | 0.21 | 0.21 | 99 | 980.4 |
| 20260905010533 | 69 | 16 | 0.0 | 0.0 | 0.00 | 0.21 | 0.21 | 99 | 980.3 |
| 20260905010029 | 69 | 16 | 0.0 | 0.0 | 0.00 | 0.21 | 0.21 | 99 | 980.1 |
| 20260905005525 | 69 | 16 | 0.0 | 0.0 | 0.00 | 0.21 | 0.21 | 99 | 980.2 |
| 20260905005020 | 69 | 16 | 0.0 | 0.0 | 0.00 | 0.21 | 0.21 | 99 | 980.3 |
| 20260905004520 | 69 | 16 | 0.0 | 0.0 | 0.00 | 0.21 | 0.21 | 99 | 980.1 |
| 20260905004015 | 69 | 16 | 0.0 | 0.0 | 0.00 | 0.21 | 0.21 | 99 | 980.2 |
| 20260905003511 | 69 | 16 | 0.0 | 0.0 | 0.00 | 0.21 | 0.21 | 99 | 980.1 |
| 20260905003007 | 69 | 16 | 0.0 | 0.0 | 0.00 | 0.21 | 0.21 | 99 | 979.9 |
| 20260905002502 | 69 | 16 | 0.0 | 0.0 | 0.00 | 0.21 | 0.21 | 99 | 980.1 |
| 20260905002001 | 70 | 16 | 0.0 | 0.0 | 0.00 | 0.21 | 0.21 | 99 | 980.0 |
| 20260905001456 | 69 | 16 | 0.0 | 0.0 | 0.00 | 0.21 | 0.21 | 99 | 979.9 |
| 20260905000951 | 70 | 16 | 0.0 | 0.0 | 0.00 | 0.21 | 0.21 | 99 | 979.8 |
| 20260905000447 | 70 | 16 | 0.0 | 0.0 | 0.00 | 0.21 | 0.21 | 99 | 979.8 |
| 20260904235942 | 70 | 16 | 0.0 | 0.0 | 0.00 | 0.21 | 0.21 | 99 | 979.8 |
| 20260904235438 | 70 | 16 | 0.0 | 0.0 | 0.00 | 0.21 | 0.21 | 99 | 979.9 |
| 20260904234937 | 70 | 16 | 0.0 | 0.0 | 0.00 | 0.21 | 0.21 | 99 | 979.7 |
| 20260904234437 | 70 | 16 | 0.0 | 0.0 | 0.00 | 0.21 | 0.21 | 99 | 979.7 |
| 20260904233933 | 70 | 16 | 0.0 | 0.0 | 0.00 | 0.21 | 0.21 | 99 | 979.6 |
| 20260904233428 | 70 | 16 | 0.0 | 0.0 | 0.00 | 0.21 | 0.21 | 99 | 979.7 |
| 20260904232925 | 70 | 16 | 0.0 | 0.0 | 0.00 | 0.21 | 0.21 | 99 | 979.7 |
| 20260904232421 | 71 | 16 | 0.0 | 0.0 | 0.00 | 0.21 | 0.21 | 99 | 980.1 |
| 20260904231918 | 71 | 16 | 0.0 | 0.0 | 0.00 | 0.21 | 0.21 | 99 | 980.2 |
| 20260904231412 | 71 | 16 | 0.0 | 0.0 | 0.00 | 0.21 | 0.21 | 99 | 980.2 |
| 20260904230907 | 71 | 16 | 0.0 | 1.0 | 0.00 | 0.21 | 0.21 | 99 | 980.3 |
| 20260904230406 | 71 | 16 | 1.0 | 1.0 | 0.00 | 0.21 | 0.21 | 99 | 980.3 |
| 20260904225901 | 71 | 16 | 0.0 | 0.0 | 0.00 | 0.21 | 0.21 | 99 | 980.3 |
| 20260904225359 | 71 | 16 | 0.0 | 0.0 | 0.00 | 0.21 | 0.21 | 99 | 980.3 |
| 20260904224859 | 72 | 16 | 0.0 | 0.0 | 0.00 | 0.21 | 0.21 | 99 | 980.2 |
| 20260904224355 | 72 | 16 | 0.0 | 0.0 | 0.00 | 0.21 | 0.21 | 99 | 980.0 |
| 20260904223855 | 72 | 16 | 0.0 | 0.0 | 0.00 | 0.21 | 0.21 | 99 | 980.2 |
| 20260904223354 | 73 | 16 | 1.0 | 1.0 | 0.00 | 0.21 | 0.21 | 99 | 980.5 |
| 20260904222850 | 73 | 16 | 1.0 | 1.0 | 0.00 | 0.21 | 0.21 | 98 | 980.8 |
| 20260904222345 | 73 | 16 | 1.0 | 1.0 | 0.00 | 0.21 | 0.21 | 98 | 980.8 |
| 20260904221844 | 73 | 16 | 1.0 | 2.0 | 0.00 | 0.21 | 0.21 | 97 | 980.8 |
| 20260904221339 | 74 | 16 | 0.0 | 1.0 | 0.00 | 0.21 | 0.21 | 95 | 981.2 |
| 20260904220834 | 76 | 16 | 0.0 | 0.0 | 0.00 | 0.21 | 0.21 | 92 | 980.9 |
| 20260904220333 | 76 | 17 | 0.0 | 1.0 | 0.00 | 0.21 | 0.21 | 89 | 980.9 |
| 20260904215829 | 75 | 15 | 1.0 | 2.0 | 0.00 | 0.21 | 0.21 | 91 | 980.7 |
| 20260904215324 | 75 | 70 | 1.0 | 4.0 | 0.00 | 0.21 | 0.21 | 93 | 980.9 |
| 20260904214820 | 74 | 3 | 0.0 | 1.0 | 0.00 | 0.21 | 0.21 | 93 | 981.2 |
| 20260904214315 | 73 | 3 | 0.0 | 2.0 | 0.00 | 0.21 | 0.21 | 96 | 981.4 |
| 20260904213813 | 73 | 3 | 0.0 | 3.0 | 0.00 | 0.21 | 0.21 | 98 | 981.7 |
| 20260904213309 | 72 | 3 | 0.0 | 0.0 | 0.00 | 0.21 | 0.21 | 98 | 981.7 |
| 20260904212806 | 72 | 3 | 0.0 | 0.0 | 0.00 | 0.21 | 0.21 | 98 | 981.7 |
| 20260904212306 | 71 | 3 | 0.0 | 1.0 | 0.00 | 0.21 | 0.21 | 98 | 981.5 |
| 20260904211800 | 71 | 3 | 0.0 | 1.0 | 0.00 | 0.21 | 0.21 | 99 | 981.3 |
| 20260904211255 | 71 | 3 | 0.0 | 3.0 | 0.00 | 0.21 | 0.21 | 98 | 981.8 |
| 20260904210751 | 71 | 59 | 0.0 | 2.0 | 0.00 | 0.21 | 0.21 | 99 | 981.6 |
| 20260904210250 | 72 | 59 | 1.0 | 2.0 | 0.00 | 0.21 | 0.21 | 99 | 981.6 |
| 20260904205746 | 0 | 0.0 | 0.0 | 0.00 | 0.00 | 0.00 | 981.7 | ||
| 20260904193557 | 71 | 1 | 2.0 | 15.0 | 1.21 | 0.21 | 0.21 | 93 | 983.0 |
| 20260904193054 | 71 | 1 | 2.0 | 15.0 | 1.21 | 0.21 | 0.21 | 93 | 983.0 |
| 20260904192554 | 76 | 343 | 6.0 | 10.0 | 0.31 | 0.06 | 0.06 | 86 | 983.0 |
| 20260904192049 | 83 | 16 | 10.0 | 15.0 | 0.00 | 0.01 | 0.01 | 73 | 982.0 |
| 20260904191546 | 85 | 317 | 1.0 | 2.0 | 0.00 | 0.01 | 0.01 | 86 | 980.7 |
| 20260904191042 | 85 | 215 | 1.0 | 2.0 | 0.00 | 0.01 | 0.01 | 83 | 980.4 |
| 20260904190537 | 87 | 97 | 1.0 | 1.0 | 0.00 | 0.01 | 0.01 | 77 | 980.6 |
| 20260904190034 | 88 | 128 | 2.0 | 3.0 | 0.00 | 0.01 | 0.01 | 75 | 980.7 |
| 20260904185530 | 90 | 209 | 0.0 | 1.0 | 0.00 | 0.01 | 0.01 | 71 | 980.5 |
| 20260904185025 | 91 | 209 | 0.0 | 3.0 | 0.00 | 0.01 | 0.01 | 68 | 980.3 |
| 20260904184524 | 91 | 158 | 4.0 | 4.0 | 0.00 | 0.01 | 0.01 | 65 | 980.3 |
| 20260904184019 | 90 | 91 | 1.0 | 3.0 | 0.00 | 0.01 | 0.01 | 64 | 980.5 |
| 20260904183514 | 91 | 98 | 2.0 | 7.0 | 0.00 | 0.01 | 0.01 | 65 | 980.1 |
| 20260904183010 | 91 | 234 | 3.0 | 4.0 | 0.00 | 0.01 | 0.01 | 65 | 979.9 |